Wind_Speed
14 14 13 13 13 12 12 11 11 11 11 11 11 11 11 11 11 11 11 11 11 11 11 10 10 10 10 10 9 9 8 8 7 7 7 6 6 6 6 6 5 5 5
15 15 15 15 14 14 14 13 13 13 13 13 13 13 13 13 13 12 12 12 12 13 13 12 12 12 11 11 11 10 10 10 9 9 8 8 8 8 8 8 7 7 7
17 17 16 16 16 16 16 15 15 15 15 15 15 15 15 15 15 14 14 14 14 14 14 14 14 13 13 13 12 12 12 12 12 11 11 10 10 10 10 10 10 9 9
19 19 18 18 18 18 18 17 17 17 17 17 17 17 17 17 16 16 15 15 15 15 16 16 16 15 15 14 14 14 14 13 13 13 13 13 12 12 12 12 12 11 11
20 20 20 19 19 19 19 19 19 19 19 19 19 18 18 18 18 17 17 17 16 16 16 17 17 17 17 16 16 15 15 15 15 15 15 14 14 14 14 14 13 13 12
22 21 21 21 20 20 20 21 21 21 20 20 20 19 19 19 20 20 20 19 19 18 18 18 18 19 18 18 18 18 18 17 17 17 16 16 16 16 16 15 15 15 14
24 23 23 23 22 22 22 22 22 22 22 22 22 22 21 21 22 22 22 22 21 21 20 21 21 21 21 20 20 20 20 19 19 19 18 18 18 18 18 17 17 16 16
25 24 24 23 23 23 23 24 23 23 23 23 23 23 23 23 23 23 23 24 23 23 23 23 23 22 22 22 22 22 22 21 21 21 21 20 20 19 19 19 18 18 17
26 25 24 24 24 24 24 24 23 23 24 24 25 25 24 25 25 25 25 25 25 25 25 25 25 24 24 24 23 23 23 22 23 23 22 22 21 21 20 20 20 20 20
26 25 25 24 24 24 24 24 24 24 24 25 26 26 26 26 26 26 26 26 26 26 26 26 27 26 26 26 26 25 24 24 24 24 23 23 23 23 22 22 22 21 21
27 26 25 25 25 24 25 25 25 25 25 26 26 26 27 27 27 27 27 27 27 28 28 28 29 29 28 28 28 27 27 26 26 25 25 25 24 24 24 24 23 23 23
28 27 26 26 25 25 25 26 26 26 26 27 27 27 27 27 28 28 28 29 28 29 29 30 30 31 30 30 30 30 29 28 28 28 27 27 26 25 25 25 25 25 24
28 28 27 26 27 27 27 27 27 27 28 28 28 29 29 29 29 29 30 30 30 31 31 31 32 32 32 31 31 31 31 30 30 30 29 28 28 28 27 27 27 27 26
29 28 28 28 28 28 28 28 28 28 28 28 29 29 30 30 30 31 31 31 31 32 33 33 33 33 33 32 32 32 32 33 32 31 31 30 30 29 29 29 28 28 28
29 28 28 28 29 29 29 29 29 29 29 29 29 30 30 31 31 31 32 32 32 33 33 33 33 34 34 34 33 33 33 33 34 33 32 31 31 31 32 31 30 30 29
29 28 28 29 29 29 29 30 30 30 30 30 30 31 31 32 33 32 32 33 33 34 33 33 34 34 35 35 35 35 35 35 35 34 34 34 33 33 33 33 33 32 32
28 29 29 29 29 29 30 30 30 30 31 31 32 33 33 34 34 33 33 33 34 35 35 35 35 35 36 37 37 37 37 37 36 36 36 35 35 34 34 34 34 34 34
28 28 29 29 29 29 30 30 30 31 32 32 33 33 34 34 34 34 34 34 34 35 35 36 36 37 37 38 38 39 39 39 39 38 38 37 36 35 35 35 36 36 36
28 28 29 29 29 30 30 30 30 30 32 33 33 33 33 34 34 34 35 35 36 36 36 37 38 38 38 38 39 40 41 41 41 41 40 39 38 37 37 36 37 38 38
28 27 28 28 28 29 29 30 31 31 32 32 32 34 34 35 36 36 36 36 36 37 37 38 38 39 39 40 40 40 41 42 42 43 42 42 41 40 40 39 38 39 40
27 28 27 28 29 29 30 30 32 33 33 34 34 35 36 36 36 37 37 37 37 38 38 39 40 40 41 41 41 41 42 42 42 43 43 44 43 43 41 40 39 40 40
27 27 28 29 29 30 31 33 33 34 34 36 36 37 37 37 37 37 37 38 39 39 40 40 41 41 41 42 42 41 42 43 43 44 44 45 45 45 44 44 43 42 42
28 29 29 29 30 31 33 34 35 35 36 36 37 37 37 38 39 39 39 39 40 40 41 41 42 42 42 42 43 43 43 43 43 44 46 46 46 46 45 45 46 45 43
29 29 30 30 31 32 33 34 35 35 36 37 38 38 38 39 40 41 41 41 42 42 42 42 42 43 43 43 43 44 44 44 44 43 45 46 47 48 48 47 47 47 46
28 29 30 31 32 32 33 34 35 36 36 37 38 39 40 40 41 41 42 42 43 43 43 43 43 43 43 42 43 43 44 44 45 45 45 46 48 49 49 49 50 49 48
28 29 30 31 33 33 34 35 36 36 37 38 39 40 40 41 41 42 42 42 43 43 43 42 43 44 44 43 43 43 43 44 45 46 46 46 47 49 50 50 50 50 49
Wind_Direction
235 236 238 237 238 240 241 242 245 249 250 251 252 253 255 255 255 256 255 255 254 254 254 254 255 256 256 255 254 253 254 254 256 258 259 259 260 262 265 269 277 282 286
237 238 240 240 240 240 242 244 246 249 251 254 255 256 256 257 257 257 256 257 257 256 256 255 255 255 257 258 258 256 256 256 258 260 260 262 264 265 267 271 277 281 284
240 240 241 242 243 243 244 245 247 250 254 255 257 258 258 259 259 259 258 258 259 259 258 257 256 256 257 259 260 260 260 259 259 261 262 263 265 267 269 271 276 279 281
242 242 242 243 245 246 247 247 249 251 254 256 257 258 260 259 260 260 260 259 259 260 259 259 258 258 258 258 260 261 262 262 262 262 263 264 266 268 269 270 273 276 278
243 243 244 245 246 247 249 250 251 252 254 256 257 258 259 259 259 260 260 260 260 260 260 260 260 260 260 260 260 261 262 263 263 263 263 264 266 268 269 270 272 273 275
244 243 244 246 248 249 251 252 252 253 254 255 256 257 259 260 260 260 260 260 260 260 259 260 261 261 261 261 261 261 262 262 263 263 263 264 265 267 269 270 272 272 272
244 246 247 248 250 252 253 255 255 254 254 255 256 258 260 261 261 261 261 260 260 260 260 260 261 262 262 262 262 262 262 263 263 264 265 265 266 267 267 269 271 271 272
244 246 248 250 252 253 254 255 256 255 255 256 257 259 260 261 261 261 261 260 260 261 261 261 261 261 262 262 262 262 262 263 263 264 265 266 266 266 267 267 269 270 270
243 245 248 251 252 253 254 255 255 256 256 256 257 258 259 260 261 261 261 261 261 261 261 261 261 261 261 261 262 262 262 263 264 264 264 265 266 266 266 266 267 268 268
244 246 248 250 252 253 254 255 256 257 257 257 257 258 259 260 260 262 262 261 261 261 261 261 261 262 263 263 262 262 262 262 264 264 263 264 265 266 266 266 266 267 267
244 246 248 249 251 253 254 255 256 257 258 258 258 258 259 259 260 262 263 262 262 262 262 262 262 263 263 263 262 262 261 262 263 263 263 263 264 265 265 266 266 266 267
244 247 248 249 250 251 253 255 257 258 259 260 259 259 260 261 261 262 264 263 262 263 263 263 263 263 263 263 262 261 261 261 262 263 263 263 264 264 265 265 266 266 266
245 247 247 248 250 251 253 255 257 259 260 261 261 260 260 261 263 264 265 266 265 264 263 264 264 263 262 262 261 261 261 261 262 263 263 264 264 264 264 265 266 267 267
245 247 248 248 250 252 253 254 257 259 260 261 262 261 261 262 264 265 266 267 267 266 264 264 263 262 262 261 261 261 262 261 262 263 264 264 263 263 263 264 265 266 266
245 247 248 249 251 252 254 254 256 258 259 261 262 262 263 263 264 266 267 267 268 266 264 263 263 262 261 261 261 261 262 261 261 262 263 263 264 263 263 263 264 265 266
246 248 249 250 252 253 254 255 256 258 259 260 262 264 265 265 266 266 268 268 267 265 265 263 262 262 261 260 260 261 261 261 261 262 263 263 263 264 263 262 262 263 265
246 249 251 252 253 254 255 256 256 258 259 260 262 264 266 266 267 267 268 268 266 266 265 264 263 263 262 261 261 261 261 261 262 262 262 263 264 264 264 262 262 263 264
247 249 252 254 254 254 255 257 257 258 260 261 263 265 266 266 267 268 267 267 267 266 265 264 263 264 264 262 261 261 261 260 261 262 262 262 263 263 264 263 262 262 263
249 250 252 254 254 255 257 258 260 261 261 262 263 265 266 267 268 269 269 268 268 267 266 265 265 264 265 265 263 262 261 260 260 261 262 262 262 262 263 264 264 262 262
251 252 253 254 255 256 257 260 262 263 263 265 266 267 268 269 270 270 270 269 269 268 267 266 266 266 266 266 265 264 263 261 260 260 260 261 262 262 261 262 265 264 262
252 254 255 256 256 256 258 261 263 265 266 267 269 269 270 270 270 270 269 270 270 270 268 267 267 267 266 266 266 265 264 263 261 261 260 260 261 261 261 261 262 264 263
253 255 256 257 256 259 261 263 265 267 267 269 270 272 271 271 271 270 270 271 272 272 270 268 267 267 267 267 266 266 265 264 262 261 261 261 261 260 261 260 260 261 261
255 256 257 258 260 262 263 265 267 268 270 270 270 271 271 271 271 272 272 272 273 273 272 269 266 267 266 266 265 266 266 265 264 262 261 261 260 259 259 260 261 261 261
256 257 258 260 263 264 266 268 269 270 270 270 270 271 271 272 273 273 274 275 276 275 273 271 269 268 267 266 266 266 266 266 265 263 262 260 260 259 259 259 260 260 259
256 258 260 262 264 265 267 268 270 271 272 271 272 272 272 273 274 274 274 275 276 276 274 272 270 269 268 267 267 267 267 266 266 265 263 261 260 259 259 258 259 260 260
258 260 262 265 267 268 270 271 272 273 274 274 274 274 274 274 275 275 275 275 276 276 274 272 270 268 267 267 267 267 267 267 267 267 265 263 261 260 259 259 259 260 260
Height
5864 5865 5866 5867 5868 5869 5870 5870 5871 5872 5873 5873 5874 5874 5875 5875 5876 5876 5877 5877 5877 5877 5878 5878 5878 5878 5878 5878 5878 5878 5878 5878 5878 5878 5878 5877 5877 5877 5877 5876 5876 5875 5875
5861 5862 5863 5864 5865 5866 5867 5868 5869 5870 5870 5871 5872 5872 5873 5873 5874 5874 5875 5875 5875 5876 5876 5876 5876 5876 5877 5877 5877 5877 5877 5877 5877 5877 5876 5876 5876 5876 5875 5875 5875 5874 5874
5858 5859 5860 5861 5862 5863 5864 5865 5866 5867 5868 5869 5869 5870 5871 5871 5871 5872 5872 5873 5873 5873 5874 5874 5874 5874 5875 5875 5875 5875 5875 5875 5875 5875 5875 5875 5874 5874 5874 5874 5873 5873 5872
5854 5856 5857 5858 5859 5860 5861 5862 5863 5864 5865 5866 5867 5867 5868 5868 5869 5869 5870 5870 5871 5871 5871 5872 5872 5872 5872 5873 5873 5873 5873 5873 5873 5873 5873 5873 5872 5872 5872 5872 5871 5871 5870
5850 5852 5853 5855 5856 5857 5858 5859 5860 5861 5862 5862 5863 5864 5865 5865 5866 5866 5867 5867 5868 5868 5868 5869 5869 5869 5870 5870 5870 5870 5870 5870 5871 5871 5871 5870 5870 5870 5870 5870 5869 5869 5868
5846 5848 5849 5851 5852 5853 5854 5855 5856 5857 5858 5859 5860 5860 5861 5862 5862 5863 5864 5864 5865 5865 5865 5866 5866 5866 5867 5867 5867 5868 5868 5868 5868 5868 5868 5868 5868 5868 5867 5867 5867 5866 5866
5842 5843 5845 5847 5848 5849 5850 5851 5852 5853 5854 5855 5856 5856 5857 5858 5858 5859 5860 5860 5861 5861 5862 5862 5862 5863 5863 5864 5864 5864 5864 5865 5865 5865 5865 5865 5865 5865 5865 5864 5864 5864 5864
5837 5839 5840 5842 5843 5844 5845 5846 5847 5849 5849 5850 5851 5852 5853 5853 5854 5855 5855 5856 5857 5857 5858 5858 5858 5859 5859 5859 5860 5860 5860 5861 5861 5861 5861 5861 5861 5861 5861 5861 5861 5861 5861
5832 5834 5835 5837 5838 5839 5841 5842 5843 5844 5845 5846 5846 5847 5848 5848 5849 5849 5850 5851 5852 5852 5853 5853 5854 5854 5855 5855 5855 5856 5856 5856 5857 5857 5857 5858 5858 5858 5858 5858 5858 5857 5857
5826 5828 5830 5832 5833 5834 5835 5836 5838 5839 5839 5840 5841 5842 5843 5843 5844 5844 5845 5845 5846 5847 5848 5848 5849 5849 5850 5850 5851 5851 5851 5852 5852 5853 5853 5853 5853 5853 5854 5854 5853 5853 5853
5821 5823 5825 5826 5828 5829 5830 5831 5832 5833 5834 5835 5835 5836 5837 5838 5838 5839 5839 5840 5840 5841 5842 5843 5843 5844 5845 5845 5846 5846 5846 5847 5848 5848 5848 5849 5849 5849 5849 5849 5849 5849 5849
5815 5817 5819 5821 5823 5824 5825 5826 5827 5828 5828 5829 5830 5831 5831 5832 5833 5833 5834 5834 5835 5835 5836 5837 5837 5838 5839 5839 5840 5840 5841 5841 5842 5842 5843 5843 5844 5844 5844 5844 5844 5844 5844
5809 5811 5813 5815 5817 5818 5819 5820 5821 5822 5823 5823 5824 5825 5825 5826 5826 5827 5827 5828 5828 5829 5830 5830 5831 5831 5832 5833 5834 5834 5835 5835 5836 5836 5837 5838 5838 5838 5838 5839 5839 5839 5839
5803 5805 5807 5809 5811 5812 5813 5814 5815 5816 5816 5817 5818 5818 5819 5820 5820 5821 5821 5821 5822 5822 5823 5824 5824 5825 5825 5826 5827 5828 5828 5829 5829 5830 5830 5831 5832 5832 5832 5833 5833 5833 5834
5797 5799 5801 5803 5804 5806 5807 5808 5809 5809 5810 5810 5811 5811 5812 5813 5813 5814 5814 5814 5815 5815 5815 5816 5817 5817 5818 5819 5820 5820 5821 5822 5823 5823 5824 5824 5825 5826 5826 5826 5827 5827 5828
5791 5793 5795 5796 5798 5799 5800 5801 5802 5803 5803 5804 5804 5804 5805 5806 5806 5807 5807 5807 5807 5807 5808 5809 5809 5810 5811 5812 5812 5813 5814 5814 5815 5816 5817 5817 5818 5818 5819 5819 5820 5821 5821
5785 5787 5788 5790 5791 5792 5793 5794 5795 5796 5796 5797 5797 5797 5798 5798 5799 5799 5800 5800 5800 5800 5800 5801 5801 5802 5803 5803 5804 5805 5806 5806 5807 5808 5809 5810 5810 5811 5811 5812 5813 5814 5814
5778 5780 5782 5783 5784 5785 5786 5787 5788 5788 5789 5789 5790 5790 5790 5791 5791 5791 5792 5792 5792 5792 5792 5792 5793 5794 5794 5795 5795 5796 5797 5798 5799 5799 5800 5801 5802 5803 5803 5804 5805 5806 5806
5772 5774 5775 5776 5777 5778 5779 5780 5780 5781 5781 5782 5782 5782 5783 5783 5783 5784 5784 5783 5783 5783 5784 5784 5784 5785 5785 5786 5786 5787 5788 5789 5790 5790 5791 5792 5793 5794 5795 5795 5796 5797 5798
5766 5767 5768 5769 5770 5771 5772 5773 5773 5773 5774 5774 5775 5775 5775 5775 5775 5775 5775 5775 5775 5775 5775 5775 5775 5776 5776 5776 5777 5777 5778 5779 5780 5781 5782 5783 5784 5785 5786 5787 5788 5788 5789
5760 5761 5762 5763 5764 5765 5766 5766 5766 5766 5766 5767 5767 5766 5767 5767 5766 5766 5766 5766 5766 5766 5766 5766 5766 5766 5767 5767 5767 5768 5768 5769 5769 5770 5772 5773 5774 5775 5776 5777 5778 5779 5779
5753 5754 5755 5756 5757 5758 5759 5759 5759 5759 5759 5759 5759 5758 5758 5758 5758 5758 5757 5757 5757 5756 5756 5756 5756 5756 5756 5756 5756 5757 5758 5759 5759 5760 5761 5762 5764 5765 5766 5767 5768 5769 5769
5747 5748 5749 5750 5750 5751 5751 5751 5751 5751 5751 5750 5750 5750 5749 5749 5749 5749 5748 5748 5747 5747 5746 5746 5745 5745 5745 5745 5745 5746 5746 5747 5748 5749 5750 5751 5752 5754 5755 5756 5758 5758 5759
5741 5742 5743 5743 5743 5743 5743 5743 5743 5743 5742 5742 5741 5741 5740 5740 5739 5739 5738 5738 5737 5736 5735 5735 5735 5734 5734 5734 5734 5734 5735 5735 5736 5738 5739 5740 5741 5742 5744 5745 5746 5747 5748
5734 5735 5735 5736 5736 5736 5736 5735 5735 5734 5734 5733 5732 5732 5731 5730 5729 5728 5728 5727 5726 5725 5724 5724 5723 5723 5723 5723 5723 5723 5723 5723 5724 5725 5727 5728 5729 5730 5732 5733 5734 5735 5737
5727 5728 5728 5728 5728 5727 5727 5727 5726 5725 5725 5724 5723 5722 5721 5720 5719 5718 5717 5716 5715 5714 5713 5712 5712 5712 5712 5712 5712 5712 5712 5712 5713 5713 5715 5716 5717 5718 5719 5721 5722 5723 5725